Weather History for Dryden, TX

Change the Weather History Date:

Tuesday, November 20, 2012

  Actual Average (KFST) Record (KFST)
Temperature  
Mean Temperature 67 °F -  
Max Temperature 79 °F 65 °F 88 °F (1996)
Min Temperature 55 °F 42 °F 35 °F (2005)
Cooling Degree Days 2    
Growing Degree Days 17 (Base 50)    
Moisture  
Dew Point 52 °F    
Average Humidity 64    
Maximum Humidity 84    
Minimum Humidity 30    
Precipitation  
Precipitation 0.00 in - - ()
Sea Level Pressure  
Sea Level Pressure 30.12 in    
Wind  
Wind Speed 6 mph (NE)    
Max Wind Speed 10 mph    
Max Gust Speed -    
Averages and records for this station are not official NWS values.
T = Trace of Precipitation, MM = Missing Value Source: NWS Daily Summary

Daily Weather History Graph

Daily Weather History Graph

Search for Another Location

Airport:

Trip Planner

Search our weather history database for the weather conditions in past years. The results will help you decide how hot, cold, wet, or windy it might be!

Date:

Astronomy

Nov. 20, 2012 Rise Set
Actual Time 7:18 AM CST 5:50 PM CST
Civil Twilight 6:53 AM CST 6:15 PM CST
Nautical Twilight 6:23 AM CST 6:45 PM CST
Astronomical Twilight 5:55 AM CST 7:13 PM CST
Moon 1:09 PM CST (11/20) 12:08 AM CST (11/20)
Length of Visible Light 11h 22m
Length of Day
10h 31m
First Quarter, 51% of the Moon is Illuminated
Nov 20
First Quarter
Nov 28
Full
Dec 6
Last Quarter
Dec 13
New
Dec 19
First Quarter

Hourly Weather History & Observations

Time (CST) Temp. Dew Point Humidity Pressure Visibility Wind Dir Wind Speed Gust Speed Precip Events Conditions
12:53 AM 61.0 °F 52.0 °F 72% 30.11 in - North 5.8 mph - N/A   Unknown
1:53 AM 61.0 °F 53.1 °F 75% 30.10 in - North 6.9 mph - N/A   Unknown
2:53 AM 59.0 °F 52.0 °F 78% 30.09 in - North 6.9 mph - N/A   Unknown
3:53 AM 59.0 °F 52.0 °F 78% 30.10 in - North 6.9 mph - N/A   Unknown
4:53 AM 57.9 °F 52.0 °F 81% 30.11 in - North 6.9 mph - N/A   Unknown
5:53 AM 55.9 °F 51.1 °F 84% 30.12 in - North 5.8 mph - N/A   Unknown
6:53 AM 55.9 °F 51.1 °F 84% 30.14 in - North 5.8 mph - N/A   Unknown
7:53 AM 55.0 °F 50.0 °F 83% 30.17 in - North 4.6 mph - N/A   Unknown
8:53 AM 63.0 °F 54.0 °F 72% 30.18 in - Calm Calm - N/A   Unknown
9:53 AM 68.0 °F 55.9 °F 65% 30.18 in - Calm Calm - N/A   Unknown
10:53 AM 73.9 °F 54.0 °F 50% 30.16 in - Variable 6.9 mph - N/A   Unknown
11:53 AM 75.0 °F 54.0 °F 48% 30.15 in - Variable 4.6 mph - N/A   Unknown
4:53 PM 79.0 °F 45.0 °F 30% 30.07 in - ESE 10.4 mph - N/A   Unknown
5:53 PM 73.0 °F 46.0 °F 38% 30.08 in - East 5.8 mph - N/A   Unknown
6:53 PM 71.1 °F 46.0 °F 41% 30.10 in - ESE 6.9 mph - N/A   Unknown
7:53 PM 70.0 °F 48.9 °F 47% 30.11 in - ESE 8.1 mph - N/A   Unknown
8:53 PM 69.1 °F 53.1 °F 57% 30.12 in - ESE 6.9 mph - N/A   Unknown
9:53 PM 66.9 °F 53.1 °F 61% 30.12 in - Calm Calm - N/A   Unknown
10:53 PM 64.9 °F 54.0 °F 68% 30.12 in - Calm Calm - N/A   Unknown
11:53 PM 62.1 °F 53.1 °F 72% 30.10 in - NNE 5.8 mph - N/A   Unknown